Weather History for Sandspit, BC

Change the Weather History Date:

Thursday, February 14, 2013

  Actual Average Record
Temperature  
Mean Temperature 44 °F -  
Max Temperature 50 °F 46 °F 50 °F (1998)
Min Temperature 39 °F 37 °F 32 °F (2000)
Degree Days  
Heating Degree Days 20    
Moisture  
Dew Point 43 °F    
Average Humidity 92    
Maximum Humidity 100    
Minimum Humidity 82    
Precipitation  
Precipitation 0.00 in 0.34 in - ()
Sea Level Pressure  
Sea Level Pressure 30.20 in    
Wind  
Wind Speed 5 mph ()    
Max Wind Speed 13 mph    
Max Gust Speed -    
Visibility 8.1 miles    
Events Rain    
Averages and records for this station are not official NWS values.
T = Trace of Precipitation, MM = Missing Value Source: Averaged Metar Reports

Daily Weather History Graph

Daily Weather History Graph

Search for Another Location

Airport:

Trip Planner

Search our weather history database for the weather conditions in past years. The results will help you decide how hot, cold, wet, or windy it might be!

Date:

Astronomy

Feb. 14, 2013 Rise Set
Actual Time 8:06 AM PST 5:57 PM PST
Civil Twilight 7:30 AM PST 6:33 PM PST
Nautical Twilight 6:49 AM PST 7:14 PM PST
Astronomical Twilight 6:09 AM PST 7:54 PM PST
Moon 9:24 AM PST (2/14) No Moon Set
Length of Visible Light 11h 03m
Length of Day
9h 50m
Waxing Crescent, 22% of the Moon is Illuminated
Feb 14
Waxing Crescent
Feb 17
First Quarter
Feb 25
Full
Mar 4
Last Quarter
Mar 11
New

Hourly Weather History & Observations

Time (PST) Temp. Windchill Dew Point Humidity Pressure Visibility Wind Dir Wind Speed Gust Speed Precip Events Conditions
12:00 AM 44.6 °F 38.4 °F 42.8 °F 93% 30.16 in 9.0 mi SSE 12.7 mph - N/A   Overcast
12:18 AM 44.6 °F 41.4 °F 42.8 °F 93% 30.17 in 9.0 mi South 5.8 mph - N/A   Overcast
1:00 AM 44.6 °F 39.2 °F 42.8 °F 93% 30.16 in 9.0 mi SSE 10.4 mph - N/A   Overcast
1:18 AM 44.6 °F 42.2 °F 42.8 °F 93% 30.17 in 9.0 mi South 4.6 mph - N/A   Overcast
1:29 AM 42.8 °F - 41.0 °F 93% 30.17 in 9.0 mi Variable 2.3 mph - N/A   Overcast
1:45 AM 41.0 °F 36.4 °F 39.2 °F 93% 30.17 in 9.0 mi WSW 6.9 mph - N/A   Overcast
2:03 AM 41.0 °F 35.8 °F 39.2 °F 93% 30.18 in 9.0 mi West 8.1 mph - N/A Rain Light Rain
2:24 AM 41.0 °F 36.4 °F 39.2 °F 93% 30.18 in 9.0 mi West 6.9 mph - N/A Rain Light Rain
3:00 AM 41.0 °F 37.1 °F 39.2 °F 93% 30.18 in 9.0 mi WSW 5.8 mph - N/A Rain Light Rain
3:18 AM 41.0 °F 39.0 °F 39.2 °F 93% 30.18 in 5.0 mi SW 3.5 mph - N/A Rain Rain
3:28 AM 41.0 °F - 39.2 °F 93% 30.18 in 8.0 mi SW 2.3 mph - N/A Rain Light Rain
3:46 AM 41.0 °F 39.0 °F 39.2 °F 93% 30.17 in 5.0 mi SE 3.5 mph - N/A Rain Light Rain
3:53 AM 41.0 °F 38.0 °F 39.2 °F 93% 30.17 in 2.5 mi SE 4.6 mph - N/A Rain Light Rain
4:00 AM 41 °F - - % 30.17 in - ESE 3.5 mph - -  
4:00 AM 41.0 °F 39.0 °F 41.0 °F 100% 30.17 in 2.5 mi ESE 3.5 mph - N/A Rain Light Rain
4:12 AM 42.8 °F 41.1 °F 41.0 °F 93% 30.18 in 4.0 mi East 3.5 mph - N/A Rain Light Rain
4:53 AM 42.8 °F 40.1 °F 41.0 °F 93% 30.19 in 6.0 mi SE 4.6 mph - N/A Rain Light Rain
5:00 AM 42.8 °F 40.1 °F 41.0 °F 93% 30.19 in 9.0 mi SSE 4.6 mph - N/A   Overcast
5:10 AM 42.8 °F 40.1 °F 41.0 °F 93% 30.19 in 7.0 mi SSE 4.6 mph - N/A Rain Light Rain
5:14 AM 42.8 °F 41.1 °F 41.0 °F 93% 30.19 in 5.0 mi South 3.5 mph - N/A Rain Light Rain
5:27 AM 42.8 °F - 41.0 °F 93% 30.18 in 2.2 mi Variable 2.3 mph - N/A Rain Light Rain
5:54 AM 42.8 °F - 41.0 °F 93% 30.19 in 3.0 mi South 2.3 mph - N/A   Overcast
6:00 AM 42.8 °F - 41.0 °F 93% 30.19 in 3.0 mi South 2.3 mph - N/A   Overcast
6:13 AM 42.8 °F - 41.0 °F 93% 30.19 in 6.0 mi South 2.3 mph - N/A   Overcast
6:22 AM 42.8 °F 41.1 °F 41.0 °F 93% 30.19 in 9.0 mi South 3.5 mph - N/A Rain Light Rain
6:37 AM 41.0 °F - 41.0 °F 100% 30.19 in 9.0 mi Variable 2.3 mph - N/A   Overcast
7:00 AM 41.0 °F - 41.0 °F 100% 30.19 in 9.0 mi Calm Calm - N/A   Overcast
8:00 AM 41.0 °F 39.0 °F 41.0 °F 100% 30.20 in 9.0 mi ESE 3.5 mph - N/A   Overcast
9:00 AM 44.6 °F 42.2 °F 42.8 °F 93% 30.20 in 9.0 mi SSE 4.6 mph - N/A   Overcast
10:00 AM 45 °F - - % 30.21 in - SE 2.3 mph - -  
10:00 AM 44.6 °F - 42.8 °F 93% 30.21 in 9.0 mi Calm Calm - N/A   Overcast
11:00 AM 46.4 °F - 42.8 °F 87% 30.22 in 9.0 mi Calm Calm - N/A   Overcast
11:13 AM 46.4 °F 45.2 °F 44.6 °F 93% 30.23 in 9.0 mi Variable 3.5 mph - N/A   Mostly Cloudy
11:14 AM 46.4 °F 45.2 °F 42.8 °F 87% 30.23 in 9.0 mi Variable 3.5 mph - N/A   Mostly Cloudy
11:16 AM 46.4 °F - 44.6 °F 93% 30.23 in 9.0 mi Variable 2.3 mph - N/A   Mostly Cloudy
11:17 AM 46.4 °F 45.2 °F 44.6 °F 93% 30.23 in 9.0 mi Variable 3.5 mph - N/A   Overcast
11:18 AM 46.4 °F 45.2 °F 44.6 °F 93% 30.23 in 9.0 mi SSE 3.5 mph - N/A   Overcast
11:52 AM 46.4 °F 43.5 °F 44.6 °F 93% 30.24 in 9.0 mi SSE 5.8 mph - N/A   Overcast
12:00 PM 46.4 °F 42.4 °F 44.6 °F 93% 30.24 in 9.0 mi SSE 8.1 mph - N/A   Overcast
1:00 PM 48.2 °F - 44.6 °F 87% 30.24 in 9.0 mi Variable 2.3 mph - N/A   Mostly Cloudy
1:25 PM 48.2 °F - 44.6 °F 87% 30.25 in 9.0 mi NNW 5.8 mph - N/A   Mostly Cloudy
1:58 PM 46.4 °F 43.5 °F 44.6 °F 93% 30.24 in 9.0 mi NNE 5.8 mph - N/A   Overcast
2:00 PM 46.4 °F 42.9 °F 44.6 °F 93% 30.24 in 9.0 mi NE 6.9 mph - N/A   Overcast
3:00 PM 50.0 °F - 46.4 °F 87% 30.23 in 9.0 mi WSW 4.6 mph - N/A   Mostly Cloudy
3:17 PM 50.0 °F - 46.4 °F 87% 30.23 in 9.0 mi West 10.4 mph - N/A   Overcast
3:48 PM 50.0 °F - 46.4 °F 87% 30.22 in 9.0 mi WSW 3.5 mph - N/A   Overcast
3:54 PM 50.0 °F - 46.4 °F 87% 30.22 in 9.0 mi WSW 4.6 mph - N/A   Overcast
4:00 PM 50 °F - - % 30.22 in - WSW 3.5 mph - -  
4:00 PM 50.0 °F - 46.4 °F 87% 30.22 in 9.0 mi WSW 4.6 mph - N/A   Overcast
4:18 PM 50.0 °F - 46.4 °F 87% 30.22 in 9.0 mi West 6.9 mph - N/A   Mostly Cloudy
4:50 PM 50.0 °F - 44.6 °F 82% 30.22 in 9.0 mi West 8.1 mph - N/A Rain Light Rain
5:00 PM 48.2 °F - 46.4 °F 93% 30.22 in 9.0 mi West 8.1 mph - N/A Rain Light Rain
5:14 PM 48.2 °F - 46.4 °F 93% 30.22 in 9.0 mi West 8.1 mph - N/A   Overcast
5:20 PM 48.2 °F - 46.4 °F 93% 30.22 in 9.0 mi West 8.1 mph - N/A Rain Light Rain
5:59 PM 48.2 °F - 46.4 °F 93% 30.21 in 9.0 mi Variable 2.3 mph - N/A   Overcast
6:00 PM 48.2 °F - 46.4 °F 93% 30.21 in 9.0 mi Variable 2.3 mph - N/A   Overcast
6:17 PM 46.4 °F 42.4 °F 46.4 °F 100% 30.22 in 9.0 mi Variable 8.1 mph - N/A Rain Light Rain
6:56 PM 48.2 °F - 44.6 °F 87% 30.22 in 9.0 mi West 5.8 mph - N/A Rain Light Rain
7:00 PM 48.2 °F - 44.6 °F 87% 30.22 in 9.0 mi WSW 3.5 mph - N/A Rain Light Rain
7:03 PM 48.2 °F - 44.6 °F 87% 30.21 in 9.0 mi Variable 2.3 mph - N/A   Overcast
7:06 PM 46.4 °F - 44.6 °F 93% 30.21 in 9.0 mi Variable 2.3 mph - N/A   Overcast
8:00 PM 48.2 °F - 44.6 °F 87% 30.20 in 9.0 mi WSW 5.8 mph - N/A   Overcast
9:00 PM 46.4 °F 45.2 °F 44.6 °F 93% 30.20 in 9.0 mi NNE 3.5 mph - N/A   Overcast
10:00 PM 48 °F - - % 30.20 in - Calm Calm - -  
10:00 PM 48.2 °F - 44.6 °F 87% 30.21 in 9.0 mi Variable 2.3 mph - N/A   Overcast
11:00 PM 50.0 °F - 46.4 °F 87% 30.21 in 9.0 mi SSW 4.6 mph - N/A   Overcast